When you browse on this site, cookies collect data to enhance your experience and personalize the content and advertising you see.
Visit our Privacy Policy to learn more. By continuing to use the site, you agree to this use of cookies and data.
  • Em Portugal
  • Lista de países
  • Para 7 dias
  • Temperatura da água
  • Mapas de satélite
  • Mapa do tempo
  • Widgets de tempo
  • user-avatar
    Iniciar Sessão

    Previsão horária em Albena

    Hoje, 21 Abril, Domingo

    Tempo Temperatura Precipitação Vento Pressão Humidade
    00:00 +4°C° 0 mm 2 m/s 753 mmHg 63%
    01:00 +3°C° 0 mm 3 m/s 753 mmHg 65%
    02:00 +3°C° 0 mm 3 m/s 753 mmHg 68%
    03:00 +3°C° 0 mm 3 m/s 753 mmHg 70%
    04:00 +3°C° 0 mm 3 m/s 753 mmHg 72%
    05:00 +3°C° 0 mm 3 m/s 753 mmHg 74%
    06:00 +4°C° 0 mm 3 m/s 753 mmHg 71%
    07:00 +6°C° 0 mm 4 m/s 753 mmHg 67%
    08:00 +7°C° 0 mm 4 m/s 753 mmHg 63%
    09:00 +10°C° 0 mm 3 m/s 753 mmHg 58%
    10:00 +12°C° 0 mm 2 m/s 753 mmHg 53%
    11:00 +14°C° 0 mm 2 m/s 753 mmHg 48%
    12:00 +14°C° 0 mm 2 m/s 752 mmHg 50%
    13:00 +14°C° 0 mm 2 m/s 752 mmHg 52%
    14:00 +13°C° 0 mm 2 m/s 752 mmHg 54%
    15:00 +12°C° 0 mm 3 m/s 751 mmHg 57%
    16:00 +12°C° 0 mm 3 m/s 751 mmHg 60%
    17:00 +11°C° 0 mm 4 m/s 751 mmHg 63%
    18:00 +10°C° 0 mm 3 m/s 751 mmHg 67%
    19:00 +8°C° 0 mm 3 m/s 751 mmHg 71%
    20:00 +7°C° 0 mm 2 m/s 751 mmHg 75%
    21:00 +7°C° 0 mm 2 m/s 751 mmHg 75%
    22:00 +6°C° 0 mm 2 m/s 751 mmHg 75%
    23:00 +6°C° 0 mm 2 m/s 751 mmHg 75%

    Amanhã, 22 Abril, Segunda-feira

    Tempo Temperatura Precipitação Vento Pressão Humidade
    00:00 +6°C° 0 mm 2 m/s 751 mmHg 75%
    01:00 +6°C° 0 mm 2 m/s 751 mmHg 76%
    02:00 +6°C° 0 mm 1 m/s 751 mmHg 76%
    03:00 +5°C° 0 mm 2 m/s 750 mmHg 77%
    04:00 +5°C° 0 mm 2 m/s 750 mmHg 77%
    05:00 +5°C° 0 mm 2 m/s 750 mmHg 77%
    06:00 +7°C° 0 mm 3 m/s 750 mmHg 74%
    07:00 +7°C° 0 mm 4 m/s 750 mmHg 70%
    08:00 +10°C° 0 mm 4 m/s 751 mmHg 67%
    09:00 +10°C° 0 mm 5 m/s 751 mmHg 65%
    10:00 +10°C° 0 mm 6 m/s 751 mmHg 62%
    11:00 +11°C° 0 mm 6 m/s 751 mmHg 60%
    12:00 +11°C° 0 mm 6 m/s 751 mmHg 60%
    13:00 +11°C° 0 mm 6 m/s 751 mmHg 59%
    14:00 +11°C° 0 mm 6 m/s 751 mmHg 58%
    15:00 +10°C° 0 mm 6 m/s 751 mmHg 59%
    16:00 +10°C° 0 mm 5 m/s 751 mmHg 60%
    17:00 +9°C° 0 mm 5 m/s 751 mmHg 60%
    18:00 +8°C° 0 mm 5 m/s 751 mmHg 64%
    19:00 +7°C° 0 mm 4 m/s 751 mmHg 67%
    20:00 +6°C° 0 mm 4 m/s 751 mmHg 71%
    21:00 +6°C° 0 mm 4 m/s 751 mmHg 73%
    22:00 +6°C° 0 mm 4 m/s 752 mmHg 75%
    23:00 +5°C° 0 mm 3 m/s 752 mmHg 76%

    Depois de amanhã, 23 Abril, Terça-feira

    Tempo Temperatura Precipitação Vento Pressão Humidade
    00:00 +5°C° 0 mm 3 m/s 752 mmHg 78%
    01:00 +6°C° 0 mm 2 m/s 752 mmHg 80%
    02:00 +6°C° 0 mm 2 m/s 752 mmHg 82%
    03:00 +6°C° 0 mm 2 m/s 752 mmHg 83%
    04:00 +6°C° 0 mm 2 m/s 752 mmHg 85%
    05:00 +6°C° 0 mm 2 m/s 752 mmHg 86%
    06:00 +7°C° 0 mm 3 m/s 752 mmHg 82%
    07:00 +8°C° 0 mm 3 m/s 753 mmHg 79%
    08:00 +8°C° 0 mm 4 m/s 753 mmHg 76%
    09:00 +10°C° 0 mm 4 m/s 753 mmHg 72%
    10:00 +9°C° 0 mm 5 m/s 753 mmHg 68%
    11:00 +10°C° 0 mm 5 m/s 753 mmHg 64%
    12:00 +12°C° 0 mm 5 m/s 753 mmHg 62%
    13:00 +11°C° 0 mm 6 m/s 753 mmHg 60%
    14:00 +11°C° 0 mm 6 m/s 752 mmHg 58%
    15:00 +11°C° 0 mm 6 m/s 752 mmHg 62%
    16:00 +10°C° 0 mm 5 m/s 752 mmHg 67%
    17:00 +9°C° 0 mm 5 m/s 752 mmHg 71%
    18:00 +8°C° 0 mm 5 m/s 752 mmHg 74%
    19:00 +8°C° 0 mm 5 m/s 752 mmHg 77%
    20:00 +7°C° 0 mm 5 m/s 752 mmHg 80%
    21:00 +7°C° 0 mm 5 m/s 752 mmHg 80%
    22:00 +8°C° 0 mm 4 m/s 752 mmHg 80%
    23:00 +8°C° 0 mm 4 m/s 752 mmHg 80%

    24 Abril, Quarta-feira

    Tempo Temperatura Precipitação Vento Pressão Humidade
    00:00 +8°C° 0 mm 4 m/s 752 mmHg 84%
    01:00 +8°C° 0 mm 3 m/s 752 mmHg 89%
    02:00 +8°C° 0 mm 3 m/s 752 mmHg 93%
    03:00 +8°C° 0 mm 3 m/s 752 mmHg 93%
    04:00 +8°C° 0 mm 3 m/s 752 mmHg 93%
    05:00 +8°C° 0 mm 3 m/s 752 mmHg 94%
    06:00 +9°C° 0 mm 3 m/s 752 mmHg 88%
    07:00 +10°C° 0 mm 4 m/s 753 mmHg 83%
    08:00 +11°C° 0 mm 4 m/s 753 mmHg 78%
    09:00 +12°C° 0 mm 4 m/s 753 mmHg 74%
    10:00 +13°C° 0 mm 4 m/s 753 mmHg 70%
    11:00 +14°C° 0 mm 4 m/s 753 mmHg 65%
    12:00 +14°C° 0 mm 4 m/s 753 mmHg 64%
    13:00 +14°C° 0 mm 5 m/s 753 mmHg 64%
    14:00 +15°C° 0 mm 5 m/s 753 mmHg 63%
    15:00 +14°C° 0 mm 5 m/s 753 mmHg 65%
    16:00 +13°C° 0 mm 4 m/s 753 mmHg 67%
    17:00 +13°C° 0 mm 4 m/s 753 mmHg 69%
    18:00 +11°C° 0 mm 4 m/s 753 mmHg 76%
    19:00 +10°C° 0 mm 3 m/s 753 mmHg 83%
    20:00 +8°C° 0 mm 3 m/s 753 mmHg 90%
    21:00 +8°C° 0 mm 3 m/s 753 mmHg 90%
    22:00 +8°C° 0 mm 2 m/s 753 mmHg 90%
    23:00 +8°C° 0 mm 2 m/s 754 mmHg 91%

    25 Abril, Quinta-feira

    Tempo Temperatura Precipitação Vento Pressão Humidade
    00:00 +8°C° 0 mm 2 m/s 754 mmHg 90%
    01:00 +8°C° 0 mm 2 m/s 753 mmHg 90%
    02:00 +8°C° 0 mm 2 m/s 753 mmHg 90%
    03:00 +8°C° 0 mm 2 m/s 753 mmHg 90%
    04:00 +8°C° 0 mm 2 m/s 753 mmHg 91%
    05:00 +7°C° 0 mm 2 m/s 753 mmHg 91%
    06:00 +9°C° 0 mm 2 m/s 754 mmHg 86%
    07:00 +10°C° 0 mm 3 m/s 754 mmHg 81%
    08:00 +12°C° 0 mm 3 m/s 754 mmHg 77%
    09:00 +13°C° 0 mm 3 m/s 754 mmHg 72%
    10:00 +14°C° 0 mm 3 m/s 754 mmHg 68%
    11:00 +15°C° 0 mm 4 m/s 754 mmHg 63%
    12:00 +15°C° 0 mm 4 m/s 754 mmHg 64%
    13:00 +15°C° 0 mm 4 m/s 754 mmHg 64%
    14:00 +15°C° 0 mm 4 m/s 754 mmHg 64%
    15:00 +15°C° 0 mm 4 m/s 753 mmHg 66%
    16:00 +14°C° 0 mm 4 m/s 753 mmHg 69%
    17:00 +13°C° 0 mm 4 m/s 753 mmHg 71%
    18:00 +11°C° 0 mm 4 m/s 753 mmHg 77%
    19:00 +10°C° 0 mm 3 m/s 753 mmHg 83%
    20:00 +8°C° 0 mm 2 m/s 753 mmHg 89%
    21:00 +8°C° 0 mm 2 m/s 753 mmHg 89%
    22:00 +8°C° 0 mm 2 m/s 753 mmHg 89%
    23:00 +8°C° 0 mm 2 m/s 753 mmHg 89%

    26 Abril, Sexta-feira

    Tempo Temperatura Precipitação Vento Pressão Humidade
    00:00 +8°C° 0 mm 2 m/s 752 mmHg 89%
    01:00 +8°C° 0 mm 2 m/s 752 mmHg 89%
    02:00 +7°C° 0 mm 2 m/s 752 mmHg 88%
    03:00 +7°C° 0 mm 2 m/s 751 mmHg 88%
    04:00 +7°C° 0 mm 2 m/s 751 mmHg 88%
    05:00 +7°C° 0 mm 2 m/s 751 mmHg 88%
    06:00 +9°C° 0 mm 2 m/s 751 mmHg 83%
    07:00 +10°C° 0 mm 2 m/s 751 mmHg 78%
    08:00 +12°C° 0 mm 3 m/s 751 mmHg 73%
    09:00 +13°C° 0 mm 3 m/s 751 mmHg 69%
    10:00 +14°C° 0 mm 3 m/s 751 mmHg 65%
    11:00 +15°C° 0 mm 4 m/s 751 mmHg 62%
    12:00 +15°C° 0 mm 4 m/s 751 mmHg 61%
    13:00 +17°C° 0 mm 4 m/s 750 mmHg 60%
    14:00 +17°C° 0 mm 4 m/s 750 mmHg 59%
    15:00 +15°C° 0 mm 4 m/s 749 mmHg 62%
    16:00 +15°C° 0 mm 4 m/s 749 mmHg 65%
    17:00 +14°C° 0 mm 4 m/s 749 mmHg 68%
    18:00 +12°C° 0 mm 3 m/s 749 mmHg 76%
    19:00 +11°C° 0 mm 3 m/s 749 mmHg 83%
    20:00 +9°C° 0 mm 2 m/s 748 mmHg 90%
    21:00 +9°C° 0 mm 2 m/s 748 mmHg 91%
    22:00 +10°C° 0 mm 1 m/s 748 mmHg 92%
    23:00 +9°C° 0 mm 1 m/s 748 mmHg 92%
    Mostrar mais